ZKJEE NZWB-NZNS

Flight info

Callsign ZKJEE
Flight time 0h 37m
Altitude 10000
Route LUBSI
Aircraft DHC6/L-SDFGR/C

Departure

Time 2026-04-27 23:36
Airport Woodbourne Airport (NZWB)

Arrival

Time 2026-04-28 00:13
Airport Nelson Airport (NZNS)
Time Latitude Longitude Altitude Speed Heading
2026-04-27 23:31 -41.51744 173.87736 115 ft 0 kts 265°
2026-04-27 23:35 -41.51749 173.87655 115 ft 39 kts 265°
2026-04-27 23:35 -41.51789 173.86948 115 ft 106 kts 265°
2026-04-27 23:35 -41.51853 173.85850 216 ft 123 kts 265°
2026-04-27 23:36 -41.51903 173.84722 508 ft 120 kts 265°
2026-04-27 23:36 -41.51979 173.83627 807 ft 117 kts 266°
2026-04-27 23:36 -41.52035 173.82533 1090 ft 120 kts 269°
2026-04-27 23:36 -41.52099 173.81401 1386 ft 128 kts 265°
2026-04-27 23:37 -41.52620 173.80399 1684 ft 142 kts 214°
2026-04-27 23:37 -41.53606 173.80324 1988 ft 152 kts 161°
2026-04-27 23:37 -41.54410 173.81166 2395 ft 146 kts 137°
2026-04-27 23:37 -41.55123 173.82153 2699 ft 149 kts 140°
2026-04-27 23:38 -41.55922 173.83087 3000 ft 153 kts 145°
2026-04-27 23:38 -41.56786 173.83948 3309 ft 156 kts 148°
2026-04-27 23:38 -41.57664 173.84801 3611 ft 159 kts 143°
2026-04-27 23:38 -41.58195 173.86079 3899 ft 162 kts 96°
2026-04-27 23:39 -41.57886 173.87451 4205 ft 154 kts 47°
2026-04-27 23:39 -41.57117 173.88440 4528 ft 152 kts 36°
2026-04-27 23:39 -41.56302 173.89349 4832 ft 153 kts 35°
2026-04-27 23:39 -41.55492 173.90266 5131 ft 154 kts 37°
2026-04-27 23:40 -41.54674 173.91216 5426 ft 157 kts 38°
2026-04-27 23:40 -41.53862 173.92186 5728 ft 158 kts 38°
2026-04-27 23:40 -41.53048 173.93182 6029 ft 159 kts 39°
2026-04-27 23:40 -41.52236 173.94196 6331 ft 160 kts 39°
2026-04-27 23:41 -41.51423 173.95221 6632 ft 161 kts 39°
2026-04-27 23:41 -41.50613 173.96249 6932 ft 161 kts 39°
2026-04-27 23:41 -41.49812 173.97291 7231 ft 162 kts 40°
2026-04-27 23:41 -41.49001 173.98344 7533 ft 162 kts 39°
2026-04-27 23:42 -41.48196 173.99389 7832 ft 162 kts 39°
2026-04-27 23:42 -41.47377 174.00458 8137 ft 163 kts 39°
2026-04-27 23:42 -41.46583 174.01503 8433 ft 163 kts 39°
2026-04-27 23:42 -41.45776 174.02572 8735 ft 163 kts 39°
2026-04-27 23:43 -41.44973 174.03635 9035 ft 163 kts 38°
2026-04-27 23:43 -41.44165 174.04691 9335 ft 162 kts 38°
2026-04-27 23:43 -41.43373 174.05762 9635 ft 162 kts 40°
2026-04-27 23:43 -41.42604 174.06875 9866 ft 167 kts 41°
2026-04-27 23:44 -41.41817 174.08046 9978 ft 176 kts 42°
2026-04-27 23:44 -41.40973 174.09280 10006 ft 185 kts 41°
2026-04-27 23:44 -41.40077 174.10568 10005 ft 191 kts 38°
2026-04-27 23:44 -41.38923 174.11259 9998 ft 178 kts 359°
2026-04-27 23:45 -41.37819 174.10792 10002 ft 168 kts 319°
2026-04-27 23:45 -41.37109 174.09566 10014 ft 167 kts 301°
2026-04-27 23:45 -41.36475 174.08238 10002 ft 168 kts 305°
2026-04-27 23:45 -41.35682 174.07124 10000 ft 170 kts 317°
2026-04-27 23:46 -41.34793 174.06080 9990 ft 169 kts 306°
2026-04-27 23:46 -41.34534 174.04587 9999 ft 171 kts 266°
2026-04-27 23:46 -41.34900 174.03081 10009 ft 175 kts 251°
2026-04-27 23:46 -41.35424 174.01603 10002 ft 176 kts 249°
2026-04-27 23:47 -41.35968 174.00141 10000 ft 176 kts 249°
2026-04-27 23:47 -41.36498 173.98684 9999 ft 176 kts 249°
2026-04-27 23:47 -41.37029 173.97213 9999 ft 176 kts 249°
2026-04-27 23:47 -41.37566 173.95718 9999 ft 176 kts 249°
2026-04-27 23:48 -41.38072 173.94264 9999 ft 176 kts 250°
2026-04-27 23:48 -41.38588 173.92764 9999 ft 176 kts 250°
2026-04-27 23:48 -41.39093 173.91291 9999 ft 176 kts 250°
2026-04-27 23:48 -41.39608 173.89787 10000 ft 176 kts 250°
2026-04-27 23:49 -41.40109 173.88311 10003 ft 175 kts 250°
2026-04-27 23:49 -41.40609 173.86830 10001 ft 175 kts 250°
2026-04-27 23:49 -41.41105 173.85353 10000 ft 175 kts 251°
2026-04-27 23:49 -41.41594 173.83849 9999 ft 175 kts 251°
2026-04-27 23:50 -41.42075 173.82368 9999 ft 175 kts 250°
2026-04-27 23:50 -41.42556 173.80912 9999 ft 175 kts 251°
2026-04-27 23:50 -41.43048 173.79399 9999 ft 175 kts 251°
2026-04-27 23:50 -41.43534 173.77927 9999 ft 175 kts 251°
2026-04-27 23:51 -41.44016 173.76440 9999 ft 175 kts 251°
2026-04-27 23:51 -41.44508 173.74956 9999 ft 175 kts 251°
2026-04-27 23:51 -41.44984 173.73488 10000 ft 175 kts 251°
2026-04-27 23:51 -41.45474 173.72002 10000 ft 174 kts 251°
2026-04-27 23:52 -41.45962 173.70496 10001 ft 174 kts 251°
2026-04-27 23:52 -41.46466 173.69026 10000 ft 176 kts 246°
2026-04-27 23:52 -41.47151 173.67669 10004 ft 177 kts 238°
2026-04-27 23:52 -41.47908 173.66376 10013 ft 177 kts 236°
2026-04-27 23:53 -41.48670 173.65096 10017 ft 176 kts 236°
2026-04-27 23:53 -41.49430 173.63817 10009 ft 177 kts 237°
2026-04-27 23:53 -41.50182 173.62527 10007 ft 177 kts 237°
2026-04-27 23:53 -41.50932 173.61234 10007 ft 177 kts 237°
2026-04-27 23:54 -41.51681 173.59943 10006 ft 177 kts 237°
2026-04-27 23:54 -41.52446 173.58625 10006 ft 177 kts 237°
2026-04-27 23:54 -41.53189 173.57323 10006 ft 176 kts 238°
2026-04-27 23:54 -41.53931 173.56011 10006 ft 177 kts 237°
2026-04-27 23:55 -41.54671 173.54715 10006 ft 177 kts 238°
2026-04-27 23:55 -41.55410 173.53410 10006 ft 177 kts 237°
2026-04-27 23:55 -41.56158 173.52098 10006 ft 177 kts 238°
2026-04-27 23:55 -41.56896 173.50796 10005 ft 177 kts 237°
2026-04-27 23:56 -41.57595 173.49462 10004 ft 174 kts 245°
2026-04-27 23:56 -41.58077 173.47960 10010 ft 172 kts 253°
2026-04-27 23:56 -41.58462 173.46474 10010 ft 172 kts 255°
2026-04-27 23:56 -41.58858 173.44946 10012 ft 172 kts 254°
2026-04-27 23:57 -41.59269 173.43466 10014 ft 172 kts 252°
2026-04-27 23:57 -41.59705 173.41965 10026 ft 171 kts 252°
2026-04-27 23:57 -41.60143 173.40488 10028 ft 171 kts 252°
2026-04-27 23:57 -41.60568 173.39022 10029 ft 171 kts 252°
2026-04-27 23:58 -41.61002 173.37516 10028 ft 171 kts 252°
2026-04-27 23:58 -41.61429 173.36036 10028 ft 171 kts 252°
2026-04-27 23:58 -41.61854 173.34561 10028 ft 171 kts 252°
2026-04-27 23:58 -41.62290 173.33047 10028 ft 171 kts 252°
2026-04-27 23:59 -41.62725 173.31565 10028 ft 171 kts 252°
2026-04-27 23:59 -41.63152 173.30096 10025 ft 171 kts 252°
2026-04-27 23:59 -41.63587 173.28604 10025 ft 171 kts 252°
2026-04-27 23:59 -41.64018 173.27121 10025 ft 171 kts 252°
2026-04-28 00:00 -41.64449 173.25631 10025 ft 171 kts 252°
2026-04-28 00:00 -41.64869 173.24147 10022 ft 171 kts 256°
2026-04-28 00:00 -41.64881 173.22588 10031 ft 168 kts 280°
2026-04-28 00:00 -41.64591 173.21081 10028 ft 168 kts 286°
2026-04-28 00:01 -41.64251 173.19574 10030 ft 168 kts 287°
2026-04-28 00:01 -41.63940 173.18059 10035 ft 168 kts 285°
2026-04-28 00:01 -41.63668 173.16540 10036 ft 168 kts 283°
2026-04-28 00:01 -41.63424 173.15015 10036 ft 169 kts 283°
2026-04-28 00:02 -41.63177 173.13482 10036 ft 169 kts 283°
2026-04-28 00:02 -41.62918 173.11961 10034 ft 169 kts 286°
2026-04-28 00:02 -41.62270 173.10678 10042 ft 170 kts 314°
2026-04-28 00:02 -41.61323 173.09720 10039 ft 171 kts 322°
2026-04-28 00:03 -41.60321 173.08831 10036 ft 172 kts 322°
2026-04-28 00:03 -41.59315 173.07882 10035 ft 171 kts 320°
2026-04-28 00:03 -41.58373 173.06918 10035 ft 171 kts 319°
2026-04-28 00:03 -41.57428 173.05919 10034 ft 171 kts 318°
2026-04-28 00:04 -41.56491 173.04931 10034 ft 171 kts 319°
2026-04-28 00:04 -41.54621 173.02988 10108 ft 169 kts 318°
2026-04-28 00:04 -41.53690 173.02020 10112 ft 170 kts 319°
2026-04-28 00:05 -41.52721 173.01114 10104 ft 174 kts 330°
2026-04-28 00:05 -41.51508 173.01036 10109 ft 186 kts 10°
2026-04-28 00:05 -41.50342 173.01871 10037 ft 195 kts 28°
2026-04-28 00:05 -41.49620 173.02567 9835 ft 185 kts 31°
2026-04-28 00:06 -41.48636 173.03586 9527 ft 174 kts 32°
2026-04-28 00:06 -41.47718 173.04550 9222 ft 164 kts 31°
2026-04-28 00:06 -41.46836 173.05467 8920 ft 155 kts 31°
2026-04-28 00:06 -41.46027 173.06301 8638 ft 138 kts 30°
2026-04-28 00:07 -41.45289 173.07053 8323 ft 129 kts 29°
2026-04-28 00:07 -41.44598 173.07746 8016 ft 123 kts 28°
2026-04-28 00:07 -41.43925 173.08422 7706 ft 119 kts 28°
2026-04-28 00:07 -41.43258 173.09086 7396 ft 116 kts 27°
2026-04-28 00:08 -41.42611 173.09716 7093 ft 115 kts 27°
2026-04-28 00:08 -41.41975 173.10336 6792 ft 114 kts 27°
2026-04-28 00:08 -41.41343 173.10949 6492 ft 113 kts 27°
2026-04-28 00:08 -41.40696 173.11581 6184 ft 112 kts 28°
2026-04-28 00:09 -41.40067 173.12207 5881 ft 112 kts 28°
2026-04-28 00:09 -41.39440 173.12826 5581 ft 112 kts 28°
2026-04-28 00:09 -41.38817 173.13439 5282 ft 112 kts 28°
2026-04-28 00:09 -41.38189 173.14054 4983 ft 112 kts 28°
2026-04-28 00:10 -41.37565 173.14658 4685 ft 111 kts 28°
2026-04-28 00:10 -41.36941 173.15258 4388 ft 112 kts 29°
2026-04-28 00:10 -41.36308 173.15865 4087 ft 112 kts 30°
2026-04-28 00:10 -41.35678 173.16475 3809 ft 106 kts 30°
2026-04-28 00:11 -41.35129 173.17010 3547 ft 92 kts 30°
2026-04-28 00:11 -41.34620 173.17503 3203 ft 91 kts 30°
2026-04-28 00:11 -41.34114 173.17988 2860 ft 90 kts 31°
2026-04-28 00:11 -41.33602 173.18477 2498 ft 92 kts 38°
2026-04-28 00:12 -41.33099 173.18956 2185 ft 84 kts 39°
2026-04-28 00:12 -41.32638 173.19399 1834 ft 84 kts 33°
2026-04-28 00:12 -41.32160 173.19865 1488 ft 83 kts 33°
2026-04-28 00:12 -41.31692 173.20314 1135 ft 84 kts 32°
2026-04-28 00:13 -41.31197 173.20769 736 ft 85 kts 36°
2026-04-28 00:13 -41.30715 173.21247 296 ft 88 kts 38°
2026-04-28 00:13 -41.30294 173.21734 67 ft 72 kts 40°
2026-04-28 00:13 -41.30003 173.22060 15 ft 28 kts 47°
2026-04-28 00:14 -41.29978 173.22101 15 ft 0 kts 60°